Oxford, AL

5:32 PM CDT on August 31, 2016 (GMT -0500)
Anniston Metro

Weather History for KANB - October, 2012

Change the Weather History Date:

Tuesday, October 2, 2012

  Actual Average Record
Temperature  
Mean Temperature 62 °F 68 °F  
Max Temperature 69 °F 79 °F 93 °F (1954)
Min Temperature 55 °F 57 °F 36 °F (1984)
Degree Days  
Heating Degree Days 3    
Month to date heating degree days 3  
Since 1 July heating degree days 8  
Growing Degree Days 12 (Base 50)    
Moisture  
Dew Point 60 °F    
Average Humidity 85    
Maximum Humidity 97    
Minimum Humidity 73    
Precipitation  
Precipitation 0.01 in 0.10 in 1.39 in (1962)
Month to date precipitation 1.38 0.20  
Year to date precipitation 36.91 38.05  
Sea Level Pressure  
Sea Level Pressure 29.84 in    
Wind  
Wind Speed 4 mph (SW)    
Max Wind Speed 15 mph    
Max Gust Speed 18 mph    
Visibility 8 miles    
Events Rain    
T = Trace of Precipitation, MM = Missing Value Source: NWS Daily Summary

Daily Weather History Graph

Daily Weather History Graph

Search for Another Location

Airport or City:

Trip Planner

Search our weather history database for the weather conditions in past years. The results will help you decide how hot, cold, wet, or windy it might be!

Date:

Astronomy

Oct. 02, 2012 Rise Set
Actual Time 6:38 AM CDT 6:25 PM CDT
Civil Twilight 6:14 AM CDT 6:50 PM CDT
Nautical Twilight 5:45 AM CDT 7:19 PM CDT
Astronomical Twilight 5:16 AM CDT 7:48 PM CDT
Moon 7:48 PM CDT (10/2) 8:55 AM CDT (10/2)
Length of Visible Light 12h 36m
Length of Day
11h 46m
Waning Gibbous, 94% of the Moon is Illuminated
Oct 2
Waning Gibbous
Oct 8
Last Quarter
Oct 15
New
Oct 21
First Quarter
Oct 29
Full

Hourly Weather History & Observations

Time (CDT) Temp. Dew Point Humidity Pressure Visibility Wind Dir Wind Speed Gust Speed Precip Events Conditions
12:06 AM 69.8 °F 64.4 °F 83% 29.67 in 10.0 mi SW 3.5 mph - N/A   Overcast
12:53 AM 68.0 °F 64.9 °F 90% 29.65 in 9.0 mi SW 3.5 mph - N/A   Overcast
1:49 AM 66.2 °F 62.6 °F 88% 29.68 in 10.0 mi WSW 4.6 mph - N/A   Overcast
1:53 AM 66.9 °F 63.0 °F 87% 29.66 in 10.0 mi SSW 4.6 mph - N/A   Overcast
2:21 AM 66.2 °F 62.6 °F 88% 29.68 in 10.0 mi WSW 5.8 mph - N/A   Overcast
2:31 AM 66.2 °F 62.6 °F 88% 29.68 in 10.0 mi SW 5.8 mph - N/A   Overcast
2:53 AM 66.0 °F 62.1 °F 87% 29.67 in 10.0 mi SW 4.6 mph - N/A   Overcast
3:02 AM 66.2 °F 62.6 °F 88% 29.69 in 9.0 mi SW 4.6 mph - N/A   Overcast
3:27 AM 66.2 °F 62.6 °F 88% 29.70 in 10.0 mi WSW 3.5 mph - 0.00 in   Overcast
3:53 AM 66.0 °F 62.1 °F 87% 29.68 in 10.0 mi WSW 5.8 mph - 0.00 in   Overcast
4:09 AM 66.2 °F 62.6 °F 88% 29.70 in 10.0 mi SW 4.6 mph - N/A   Overcast
4:32 AM 64.4 °F 62.6 °F 94% 29.71 in 10.0 mi SW 3.5 mph - N/A   Overcast
4:53 AM 64.9 °F 62.1 °F 90% 29.69 in 9.0 mi SW 3.5 mph - N/A   Overcast
5:53 AM 64.9 °F 60.1 °F 84% 29.71 in 10.0 mi SSW 8.1 mph - N/A   Overcast
6:07 AM 64.4 °F 60.8 °F 88% 29.74 in 10.0 mi SW 5.8 mph - N/A   Overcast
6:53 AM 64.0 °F 59.0 °F 84% 29.74 in 10.0 mi SW 4.6 mph - N/A   Overcast
7:27 AM 64.4 °F 60.8 °F 88% 29.77 in 10.0 mi West 5.8 mph - N/A   Overcast
8:53 AM 64.9 °F 60.1 °F 84% 29.79 in 10.0 mi SSW 5.8 mph - N/A   Overcast
9:53 AM 66.9 °F 59.0 °F 76% 29.80 in 10.0 mi SW 6.9 mph - N/A   Overcast
10:23 AM 66.2 °F 59.0 °F 78% 29.82 in 10.0 mi SW 6.9 mph - N/A   Overcast
10:53 AM 68.0 °F 59.0 °F 73% 29.81 in 10.0 mi SW 9.2 mph - N/A   Overcast
11:07 AM 68.0 °F 60.8 °F 78% 29.84 in 10.0 mi SW 11.5 mph - N/A   Overcast
11:21 AM 68.0 °F 60.8 °F 78% 29.84 in 10.0 mi SW 9.2 mph - N/A   Overcast
11:53 AM 69.1 °F 61.0 °F 75% 29.83 in 10.0 mi WSW 6.9 mph - N/A   Overcast
12:00 PM 68.0 °F 60.8 °F 78% 29.85 in 10.0 mi SW 8.1 mph - N/A   Overcast
12:07 PM 69.8 °F 60.8 °F 73% 29.84 in 10.0 mi SW 6.9 mph - N/A   Overcast
12:32 PM 66.2 °F 60.8 °F 83% 29.85 in 8.0 mi SW 12.7 mph - N/A   Overcast
12:39 PM 66.2 °F 59.0 °F 78% 29.85 in 9.0 mi SW 9.2 mph - N/A   Overcast
12:50 PM 66.2 °F 60.8 °F 83% 29.85 in 10.0 mi SW 8.1 mph - N/A   Overcast
12:53 PM 66.9 °F 60.1 °F 79% 29.83 in 10.0 mi SW 6.9 mph - N/A   Overcast
1:33 PM 64.4 °F 62.6 °F 94% 29.85 in 2.5 mi WSW 9.2 mph - 0.00 in Rain Light Rain
1:39 PM 64.4 °F 62.6 °F 94% 29.85 in 3.0 mi WSW 6.9 mph - 0.00 in Rain Light Rain
1:53 PM 66.9 °F 62.1 °F 84% 29.84 in 10.0 mi SW 9.2 mph - 0.00 in   Overcast
2:04 PM 66.2 °F 60.8 °F 83% 29.85 in 10.0 mi SSW 9.2 mph - N/A   Overcast
2:53 PM 64.9 °F 60.1 °F 84% 29.86 in 10.0 mi WSW 8.1 mph - N/A   Overcast
3:20 PM 64.4 °F 60.8 °F 88% 29.88 in 2.0 mi SW 8.1 mph - N/A   Overcast
3:28 PM 62.6 °F 60.8 °F 94% 29.89 in 1.5 mi WSW 8.1 mph - 0.01 in Rain Light Rain
3:38 PM 62.6 °F 60.8 °F 94% 29.89 in 2.0 mi WSW 6.9 mph - 0.01 in Rain Light Rain
3:48 PM 62.6 °F 60.8 °F 94% 29.89 in 3.0 mi SW 8.1 mph - 0.01 in Rain Light Rain
3:53 PM 62.1 °F 61.0 °F 96% 29.88 in 4.0 mi SW 6.9 mph - 0.01 in   Overcast
3:58 PM 62.6 °F 60.8 °F 94% 29.89 in 6.0 mi WSW 6.9 mph - N/A   Overcast
4:08 PM 62.6 °F 60.8 °F 94% 29.90 in 2.5 mi SW 5.8 mph - N/A   Overcast
4:19 PM 62.6 °F 60.8 °F 94% 29.90 in 4.0 mi SSW 5.8 mph - N/A   Overcast
4:43 PM 62.6 °F 60.8 °F 94% 29.90 in 9.0 mi SW 4.6 mph - N/A   Overcast
4:53 PM 63.0 °F 61.0 °F 93% 29.90 in 10.0 mi SSW 3.5 mph - N/A   Overcast
5:11 PM 62.6 °F 60.8 °F 94% 29.91 in 10.0 mi SW 4.6 mph - N/A   Overcast
5:44 PM 62.6 °F 60.8 °F 94% 29.92 in 9.0 mi WSW 6.9 mph - N/A   Overcast
5:53 PM 63.0 °F 60.1 °F 90% 29.91 in 7.0 mi WSW 6.9 mph - N/A   Overcast
6:53 PM 63.0 °F 61.0 °F 93% 29.93 in 10.0 mi Calm Calm - N/A   Overcast
7:09 PM 62.6 °F 60.8 °F 94% 29.94 in 10.0 mi Calm Calm - N/A   Overcast
7:53 PM 60.1 °F 59.0 °F 96% 29.96 in 9.0 mi Calm Calm - N/A   Clear
9:53 PM 57.9 °F 55.9 °F 93% 30.00 in 7.0 mi Calm Calm - 0.01 in   Clear
10:53 PM 57.0 °F 55.9 °F 96% 30.01 in 7.0 mi Calm Calm - N/A   Clear
11:09 PM 55.4 °F 55.4 °F 100% 30.02 in 2.5 mi Calm Calm - N/A   Clear
11:40 PM 55.4 °F 55.4 °F 100% 30.03 in 1.5 mi Calm Calm - N/A   Partly Cloudy
11:50 PM 57.2 °F 55.4 °F 94% 30.03 in 4.0 mi Calm Calm - N/A   Clear
11:53 PM 57.0 °F 55.9 °F 96% 30.02 in 6.0 mi Calm Calm - N/A   Clear
11:58 PM 57.2 °F 55.4 °F 94% 30.03 in 2.5 mi Calm Calm - N/A   Partly Cloudy